This is the latest recevied weather packets stored in our database for station/object HK6RM-20. If no packets are shown the sender has not sent any weather packets the latest 10 day(s).
| Time | Temp. | Humidity | Pressure | Rain* | Wind** | Luminosity | Snow |
|---|---|---|---|---|---|---|---|
| 1777910221 | 27.22° C | 72% | 1013 hPa | 0 mm | - | - | - |
| 1777909438 | 27.78° C | 72% | 1013 hPa | 0 mm | - | - | - |
| 1777908656 | 26.11° C | 80% | 1013 hPa | 0 mm | - | - | - |
| 1777907876 | 26.67° C | 80% | 1014 hPa | 0 mm | - | - | - |
| 1777907095 | 25.56° C | 77% | 1014 hPa | 0 mm | - | - | - |
| 1777906315 | 26.11° C | 77% | 1014 hPa | 0 mm | - | - | - |
| 1777905534 | 24.44° C | 89% | 1014 hPa | 0 mm | - | - | - |
| 1777904753 | 25° C | 89% | 1015 hPa | 0 mm | - | - | - |
| 1777903973 | 23.33° C | 88% | 1015 hPa | 0 mm | - | - | - |
| 1777903192 | 23.89° C | 88% | 1015 hPa | 0 mm | - | - | - |
| 1777902412 | 24.44° C | 88% | 1015 hPa | 0 mm | - | - | - |
| 1777901631 | 21.67° C | 94% | 1015 hPa | 0 mm | - | - | - |
| 1777900851 | 22.22° C | 94% | 1016 hPa | 0 mm | - | - | - |
| 1777900070 | 22.78° C | 94% | 1016 hPa | 0 mm | - | - | - |
| 1777899289 | 23.33° C | 94% | 1015 hPa | 0 mm | - | - | - |
| 1777898508 | 21.11° C | 98% | 1016 hPa | 0 mm | - | - | - |
| 1777897726 | 21.67° C | 98% | 1016 hPa | 0 mm | - | - | - |
| 1777896945 | 22.22° C | 98% | 1016 hPa | 0 mm | - | - | - |
| 1777896162 | 19.44° C | 95% | 1016 hPa | 0 mm | - | - | - |
| 1777895380 | 20° C | 95% | 1016 hPa | 0 mm | - | - | - |
| 1777894599 | 20.56° C | 95% | 1016 hPa | 0 mm | - | - | - |
| 1777893818 | 21.11° C | 95% | 1016 hPa | 0 mm | - | - | - |
| 1777893037 | 17.78° C | 93% | 1016 hPa | 0 mm | - | - | - |
| 1777892257 | 18.33° C | 93% | 1015 hPa | 0 mm | - | - | - |
| 1777891476 | 18.89° C | 93% | 1015 hPa | 0 mm | - | - | - |
* Rain latest hour (hover to see other rain measurements)
** Current wind speed in m/s (hover to see current wind gust speed)